CAPE
3136 3120 3128 3126 3032 2921 2912 2940 2912 2760 2619 2558 2496 2381 2338 2266 2205 2244 2337 2244 2106 2046 2046 2047 2003 1882 1775 1802 1890 1927 1942 1987 2052 2045 1934 1835 1804 1755 1677 1525 1473 1471 1451 1332 1026 942 886 830 798 775 682 640 581 506 434 260 0 0 0 0 0 0 0 0 0 0 0 0 0 0 0 0 0 0 0 0 0 0 0 0 0 0 0 0 0
3148 3100 3131 3172 3134 3045 3003 3034 3140 3104 2924 2724 2645 2536 2512 2476 2330 2301 2387 2432 2316 2225 2147 2111 2079 2022 1868 1837 1856 1918 1970 2015 2048 2066 2011 1929 1827 1752 1652 1477 1356 1327 1140 1104 1049 947 890 807 772 678 414 511 501 23 1 0 0 0 0 0 0 0 0 0 0 0 0 0 0 0 0 0 0 0 0 0 0 0 0 0 0 0 0 0 0
3068 3062 3079 3175 3227 3201 3135 3117 3148 3241 3171 3007 2791 2680 2607 2651 2603 2413 2438 2517 2497 2396 2293 2162 2116 2048 1952 1934 1900 1892 1928 2055 2083 2091 2053 1973 1880 1801 1659 1450 1299 1204 1155 1079 1006 912 842 774 736 554 392 84 29 8 0 0 0 0 0 0 0 0 0 0 0 0 0 0 0 0 0 0 0 0 0 0 0 0 0 0 0 0 0 0 0
3363 3162 3054 3097 3271 3350 3348 3284 3279 3280 3269 3189 3033 2850 2768 2666 2712 2636 2522 2540 2541 2497 2407 2269 2130 2098 2048 1998 1978 1896 1936 2047 2108 2112 2066 1988 1899 1815 1672 1463 1258 1160 1123 1010 911 833 764 729 615 526 431 420 2 0 0 0 0 0 0 0 0 0 0 0 0 0 0 0 0 0 0 0 0 0 0 0 0 0 0 0 0 0 0 0 0
3718 3502 3259 3208 3306 3469 3496 3455 3440 3398 3378 3322 3210 3063 2872 2785 2752 2750 2629 2532 2554 2542 2485 2356 2203 2134 2115 2068 2000 1932 1940 2039 2112 2136 2073 1998 1936 1851 1708 1507 1268 1138 1074 977 870 883 827 688 580 568 468 424 0 0 0 0 0 0 0 0 0 0 0 0 0 0 0 0 0 0 0 0 0 0 0 0 0 0 0 0 0 0 0 0 0
3763 3665 3468 3309 3259 3374 3479 3510 3465 3468 3454 3393 3325 3202 3080 2894 2750 2763 2732 2566 2509 2525 2524 2440 2326 2209 2118 2074 2032 2003 1954 1988 2094 2142 2120 2050 1969 1864 1732 1560 1294 1094 1042 963 932 925 880 709 624 623 486 17 0 0 0 0 0 0 0 0 0 0 0 0 0 0 0 0 0 0 0 0 0 0 0 0 0 0 0 0 0 0 0 0 0
3511 3689 3594 3351 3182 3123 3226 3297 3370 3428 3454 3457 3363 3282 3191 3063 2878 2734 2765 2734 2607 2553 2497 2439 2358 2276 2183 2059 2033 2029 1975 1916 1995 2095 2103 2076 1991 1868 1712 1554 1346 1123 1041 1021 1000 979 911 750 673 659 529 165 0 0 0 0 0 0 0 0 0 0 0 0 0 0 0 0 0 0 0 0 0 1 0 0 0 0 0 0 0 0 0 0 0
3639 3890 3806 3574 3313 3077 3046 3090 3149 3233 3364 3430 3457 3361 3250 3130 3008 2858 2753 2764 2745 2660 2582 2492 2412 2322 2239 2130 2040 2030 1986 1882 1858 1936 1973 1945 1921 1849 1718 1547 1382 1264 1182 1114 1057 1026 915 758 695 688 558 303 0 0 0 0 0 0 0 0 0 0 0 0 0 0 0 0 0 0 0 0 2 6 0 0 0 0 0 0 0 0 0 0 0
2677 2892 3333 3720 3653 3508 3340 3267 3150 3085 3154 3344 3398 3385 3286 3206 3122 2996 2835 2747 2722 2664 2588 2509 2430 2354 2286 2184 2063 2000 1936 1865 1796 1791 1840 1849 1850 1808 1685 1538 1421 1349 1259 1172 1099 1053 894 718 689 718 611 392 0 0 0 0 0 0 0 0 0 0 0 0 0 0 0 0 0 0 0 1 11 10 2 0 0 0 0 0 0 0 0 0 0
1828 2038 2249 2465 2800 3374 3459 3407 3086 2233 2470 3004 3320 3389 3315 3254 3198 3092 2967 2871 2797 2702 2647 2565 2473 2393 2332 2207 1988 2014 2012 1956 1853 1742 1742 1768 1806 1781 1690 1546 1438 1359 1288 1204 1118 1039 824 644 671 687 597 344 0 0 0 0 0 0 0 0 0 0 0 0 0 0 0 0 0 0 0 4 16 11 1 0 0 0 0 0 0 0 0 0 0
1263 1566 1592 1587 1679 1761 2061 2328 2015 2051 2574 3053 3300 3330 3289 3238 3237 3207 3124 3047 2924 2794 2696 2598 2505 2426 2329 2217 2030 2021 2046 2012 1931 1799 1646 1724 1733 1715 1664 1552 1438 1353 1297 1244 1211 1001 723 590 635 639 575 362 158 0 0 0 0 0 0 0 0 0 0 0 0 0 0 0 0 0 0 5 13 6 2 0 0 0 0 0 0 0 0 0 0
0 958 1571 1555 1590 1668 1634 1624 2067 2607 2996 3221 3342 3353 3308 3275 3256 3238 3216 3142 3037 2889 2751 2640 2541 2460 2386 2272 2076 2047 2059 2002 1897 1788 1680 1674 1700 1668 1604 1530 1444 1366 1316 1252 1158 884 646 604 596 616 608 451 282 32 0 0 0 0 0 0 0 0 0 0 0 0 0 0 0 0 0 6 3 6 6 0 0 0 0 0 0 0 0 0 0
241 16 545 1578 1614 1625 1822 2182 2639 3030 3254 3348 3406 3320 3232 3214 3210 3246 3224 3197 3113 2980 2854 2725 2591 2498 2422 2313 2156 2020 2032 1940 1853 1737 1674 1599 1676 1639 1580 1517 1442 1351 1258 1171 966 757 656 618 561 691 710 584 398 255 0 0 0 0 0 0 0 0 0 0 0 0 0 0 0 0 5 2 5 8 3 0 0 0 0 0 0 0 0 0 0
324 391 297 641 1436 1666 1757 2137 2684 3249 3490 3516 3450 3254 3092 3101 3169 3218 3237 3221 3155 3032 2884 2730 2648 2541 2428 2324 2174 2027 2043 1974 1885 1780 1647 1530 1612 1611 1542 1470 1395 1266 1115 948 824 762 699 610 559 770 790 713 455 328 183 0 0 0 0 0 0 0 0 0 0 0 0 0 0 1 0 2 7 0 0 0 0 0 0 0 0 0 0 0 0
198 300 349 316 752 1305 1594 1883 2341 2964 3437 3574 3506 3301 3086 3001 3065 3141 3187 3212 3157 3061 2933 2808 2674 2541 2435 2368 2234 2123 2064 1984 1909 1816 1692 1586 1494 1514 1470 1433 1323 1195 1071 986 916 814 704 570 619 789 818 778 574 440 266 231 224 0 0 0 0 0 0 0 0 0 0 0 0 0 0 3 0 0 0 0 0 0 0 0 0 0 0 0 0
310 454 475 543 646 851 626 904 1557 2442 3040 3381 3434 3362 3241 3048 2952 3040 3092 3128 3147 3054 2925 2824 2721 2592 2494 2407 2286 2160 2122 2039 1950 1873 1814 1733 1595 1437 1340 1325 1255 1180 1096 1010 970 857 695 538 681 850 838 790 731 604 376 316 245 0 0 0 0 0 0 0 0 0 0 0 0 0 0 0 0 0 0 0 0 0 0 0 0 0 0 0 0
528 672 688 762 841 850 896 742 584 704 1679 2750 3216 3298 3311 3192 2885 2954 3013 3070 3061 2996 2898 2763 2658 2550 2476 2420 2325 2254 2154 2082 1978 1919 1876 1817 1698 1512 1430 1404 1336 1236 1140 1048 970 867 700 542 719 850 838 827 770 637 534 324 229 0 0 0 0 0 0 0 0 0 0 0 0 0 0 0 0 0 0 0 0 0 0 0 0 0 0 0 0
194 433 538 659 766 908 891 764 644 803 1160 1799 2298 2905 3099 3146 3122 2917 2914 2983 3025 3013 2926 2767 2630 2539 2505 2447 2402 2335 2232 2148 2048 1950 1877 1789 1735 1628 1525 1467 1397 1311 1187 1082 1006 924 768 569 664 796 807 850 793 630 552 362 110 0 0 0 0 112 120 98 0 0 0 0 0 0 0 0 0 0 0 0 0 0 0 0 0 0 0 0 0
204 156 198 395 598 739 787 902 867 748 1015 1063 1424 2208 2720 3047 3076 3033 2835 2845 2905 2959 2954 2828 2653 2534 2486 2454 2408 2340 2230 2181 2136 2054 1922 1833 1748 1669 1585 1503 1397 1316 1202 1118 1023 966 853 578 563 655 716 823 795 623 524 398 160 0 0 0 141 168 176 160 142 100 37 0 0 0 0 0 0 0 0 0 0 0 0 0 0 0 0 0 0
290 236 151 222 462 559 571 694 769 820 921 1011 888 882 1798 2617 2880 2862 2802 2777 2796 2747 2778 2731 2685 2605 2490 2400 2344 2304 2223 2188 2173 2139 2039 1917 1842 1736 1645 1576 1489 1388 1251 1173 1080 965 857 641 527 591 618 769 777 643 475 386 235 50 0 40 159 210 218 220 175 99 30 0 0 0 0 0 0 0 0 0 0 0 0 0 0 0 0 0 0
546 423 264 267 512 925 1112 1244 1175 976 700 975 921 939 1152 1805 2101 2746 2713 2706 2686 2484 2558 2564 2577 2532 2506 2410 2327 2272 2241 2234 2206 2163 2117 2021 1922 1817 1713 1652 1571 1419 1298 1196 1090 1044 916 633 523 515 614 677 717 606 485 420 318 186 140 160 180 210 252 240 177 65 38 13 0 0 0 1 0 0 0 0 0 0 0 0 0 0 0 0 0
658 506 357 523 1122 1435 1425 1350 1256 1061 678 595 807 896 887 1048 1470 1894 2217 2510 2377 2261 2073 2385 2439 2476 2467 2390 2327 2298 2277 2274 2270 2220 2189 2126 2045 1896 1776 1710 1644 1478 1305 1192 1109 1066 960 766 588 424 551 605 637 588 554 490 409 264 173 162 179 214 232 219 184 127 0 0 0 0 0 5 0 0 0 0 0 0 0 0 0 0 0 0 0
671 576 793 1630 1795 1695 1628 1513 1342 1185 1378 1299 518 749 837 784 881 1377 1888 2083 2408 2419 2056 2216 2348 2342 2359 2321 2270 2251 2274 2325 2274 2236 2200 2167 2127 2022 1897 1782 1652 1538 1386 1294 1231 1116 1000 827 713 560 574 542 557 517 380 417 463 338 202 175 188 227 261 272 174 4 0 0 0 0 4 4 0 0 0 0 0 0 0 0 0 0 0 0 0
917 1332 1784 1966 1762 1555 1529 1324 1064 1084 1107 1005 1099 707 757 1003 1133 1176 1463 1498 1969 2155 2210 2026 2080 2272 2179 2212 2224 2174 2218 2288 2276 2254 2162 2137 2108 2040 1903 1743 1738 1704 1562 1459 1341 1165 1084 933 790 712 704 647 624 602 491 320 404 384 250 206 217 254 307 283 186 36 0 0 0 0 4 5 0 0 0 0 0 0 0 0 0 0 0 0 0
2118 2127 2024 1865 1626 1382 1163 1048 1094 1199 1150 990 938 696 691 871 847 853 839 1028 1183 1333 1782 2140 2085 1967 1761 1671 1929 1939 2128 2238 2267 2252 2193 2167 2084 2002 1852 1751 1753 1678 1572 1459 1373 1284 1155 1018 875 831 771 723 650 552 482 349 393 411 281 225 243 279 303 264 177 0 0 14 0 0 0 1 0 0 0 0 0 0 0 0 0 0 0 0 0
1668 1980 1945 1571 1168 1009 936 931 988 1023 1090 1105 1033 620 612 577 698 721 789 870 1108 1085 1329 1468 1602 1438 1277 1429 1539 1763 2068 2126 2174 2181 2134 2081 2045 1936 1805 1728 1708 1650 1577 1507 1379 1281 1190 1117 1027 928 824 677 615 583 434 445 450 432 355 212 258 268 266 204 7 0 24 17 0 0 0 0 0 0 0 0 0 0 0 0 0 0 0 0 0
1510 1512 1431 1290 1112 972 913 935 906 846 880 974 720 762 729 518 540 568 514 552 661 658 671 879 1205 1393 1440 1465 1308 1587 1805 1981 2033 2059 2039 1979 1898 1857 1709 1602 1600 1584 1528 1361 1246 1199 1132 1127 1049 950 847 717 584 622 492 463 467 367 297 264 252 240 186 39 0 0 28 3 0 0 0 0 0 0 0 0 0 0 0 0 0 0 0 0 0
1548 1532 1374 1176 1055 944 895 871 786 735 777 824 921 549 489 632 446 379 408 407 459 509 436 490 1020 1305 1522 1339 1318 1449 1784 1897 1933 1951 1970 1912 1832 1757 1622 1527 1494 1470 1378 1284 1185 1150 1179 1112 952 849 751 666 568 594 571 489 401 313 300 164 160 82 0 0 0 0 5 1 0 0 0 0 0 0 0 0 0 0 0 0 0 0 0 0 0
1048 1141 1171 1058 926 864 893 864 911 868 781 864 866 702 618 507 454 431 429 425 360 257 341 418 739 1048 1472 1235 1194 1190 1360 1740 1769 1872 1841 1836 1787 1718 1589 1520 1452 1428 1410 1320 1130 1167 1185 1089 959 877 765 754 624 692 705 584 466 351 180 0 0 0 0 0 0 0 0 0 0 0 0 0 0 0 0 0 0 0 0 0 0 0 0 0 0
1222 1209 1189 1091 967 898 813 751 825 855 856 846 802 800 560 556 641 602 543 531 457 453 422 462 592 1162 1207 1190 1308 1195 1419 1636 1676 1629 1579 1594 1603 1624 1561 1470 1414 1403 1344 1204 1117 1204 1162 1023 884 838 838 801 693 701 729 637 600 436 11 2 0 0 0 0 0 0 0 0 0 0 0 0 0 0 0 0 0 0 0 0 0 0 0 0 0
1075 1119 1102 1082 1047 957 831 730 622 704 781 768 673 606 646 685 752 766 648 576 594 603 616 649 845 955 922 940 1091 967 1251 1450 1534 1460 1378 1441 1501 1504 1464 1396 1388 1374 1278 1186 1082 1164 1137 1026 926 894 941 915 760 778 709 594 454 37 0 0 0 0 0 0 0 0 0 0 0 0 0 0 0 0 0 0 0 0 0 0 0 0 0 0 0
881 955 1036 1030 920 789 822 738 683 657 616 638 658 646 589 672 766 833 912 865 766 742 677 714 854 1058 858 942 1074 981 1238 1486 1481 1388 1324 1305 1353 1337 1233 1216 1163 1141 1050 944 1031 1141 1108 1037 987 929 900 858 673 678 678 634 551 178 0 0 0 0 0 0 0 0 0 0 0 0 0 0 0 0 0 0 0 0 0 0 0 0 0 0 0
799 835 895 871 776 750 724 719 653 463 389 550 634 594 565 531 477 694 804 848 763 694 683 894 862 750 908 887 803 840 1008 1343 1275 1261 1196 1143 1155 1091 1081 1091 1006 913 946 1173 1314 1361 1364 1302 1159 955 815 762 579 551 553 537 616 365 3 0 0 0 0 0 0 0 0 0 0 0 0 0 0 0 0 0 0 0 0 0 0 0 0 0 0
548 617 663 673 635 624 567 560 591 609 486 404 360 416 494 488 486 502 536 570 747 776 827 903 921 892 948 941 966 920 794 1175 1245 1179 1121 1039 970 1012 901 787 738 832 1154 1380 1416 1471 1432 1290 1200 1046 931 804 696 602 529 567 628 101 0 1 0 0 0 0 0 0 0 0 0 0 0 0 0 0 0 0 0 0 0 0 0 0 0 0 0
480 535 590 589 505 416 332 353 430 400 320 106 0 1 176 342 380 428 418 460 600 710 837 934 949 965 1038 1092 1148 904 946 997 1155 1085 955 936 963 915 772 788 842 918 1082 1171 1307 1370 1314 1206 1106 1064 976 901 774 645 601 504 138 149 4 1 0 0 0 0 0 0 0 0 0 0 0 0 0 0 0 0 0 0 0 0 0 0 0 0 0
388 373 336 322 279 299 288 330 360 341 239 356 432 428 402 364 294 370 424 430 493 534 633 706 856 866 914 977 981 1005 1074 1065 1111 1026 906 809 819 860 938 928 882 887 972 972 934 909 950 958 962 985 977 936 864 796 873 781 299 12 0 0 1 2 0 0 0 0 0 0 0 0 0 0 0 0 0 0 0 0 0 0 0 0 0 0 0
231 371 348 233 208 279 324 343 421 481 460 387 383 361 328 299 344 321 301 304 322 382 456 547 661 757 718 734 816 984 1056 1060 987 865 866 767 711 910 968 903 738 810 827 699 617 604 598 626 633 634 643 673 670 691 674 278 270 130 1 1 4 0 0 0 0 0 0 0 0 0 0 0 0 0 0 0 0 0 0 0 0 0 0 0 0
83 104 86 37 187 244 274 283 326 374 368 304 144 126 220 307 357 328 324 294 272 218 139 185 414 534 590 637 575 778 872 842 259 366 501 469 716 940 856 724 766 727 516 471 422 387 377 361 187 176 340 360 408 462 538 387 200 52 0 1 2 0 0 0 0 0 2 0 0 0 0 0 0 0 0 0 0 0 0 0 0 0 0 0 0
27 48 124 113 116 80 218 241 221 238 255 182 117 450 464 400 433 359 299 245 97 81 76 89 107 411 548 528 578 682 731 709 683 703 778 859 825 796 738 802 788 755 690 584 491 434 414 326 496 450 309 281 293 332 427 80 30 41 1 0 2 0 0 0 0 0 6 0 0 0 0 0 0 0 0 0 0 0 0 0 0 0 0 0 0
5 16 62 94 103 123 90 42 138 160 165 210 322 448 418 416 488 435 313 241 169 0 0 0 192 314 451 591 700 720 708 794 750 961 1067 932 735 658 716 724 629 735 758 790 732 725 680 604 456 248 184 178 172 256 296 221 34 64 0 0 0 0 0 0 0 9 5 0 0 0 0 0 0 0 0 0 0 0 0 0 0 0 0 0 0
5 2 3 18 28 32 39 47 15 91 136 150 195 319 432 448 449 539 470 104 1 40 148 32 52 92 323 500 660 596 524 441 333 243 514 834 772 686 685 643 646 632 665 681 726 695 574 299 250 230 214 186 174 200 235 201 74 70 0 1 0 1 0 2 5 2 0 0 0 0 0 0 0 0 0 0 0 0 0 0 0 0 0 0 0
2 1 2 4 2 0 2 10 12 18 30 77 36 67 223 349 345 393 450 332 42 0 0 94 136 150 52 221 264 367 372 175 162 257 286 234 510 681 934 1037 973 887 790 628 243 250 193 245 366 356 314 281 284 288 233 138 105 4 0 1 5 7 7 10 3 0 0 0 0 0 0 0 0 0 0 0 0 0 0 0 0 0 0 0 0
0 2 2 0 1 3 4 5 9 11 5 15 88 99 87 19 201 234 315 259 236 243 273 120 16 115 35 40 80 123 120 132 168 152 189 334 356 605 752 722 708 716 713 618 446 350 425 569 601 474 344 292 283 243 99 40 40 17 0 4 9 12 3 0 0 0 0 0 0 0 0 0 0 0 0 0 0 0 0 0 0 0 0 0 0
7 5 2 2 1 0 4 1 0 1 2 1 3 31 102 82 81 64 75 235 216 184 228 396 447 435 403 181 74 76 72 51 66 127 114 120 139 128 371 520 540 517 530 554 515 528 532 540 551 456 389 345 224 109 5 20 22 4 0 2 8 12 2 0 0 0 0 0 0 0 0 0 0 0 0 0 0 0 0 0 0 0 0 0 0
3 2 1 4 2 0 1 0 0 1 2 2 6 6 4 19 57 75 50 21 0 210 281 256 316 371 404 407 316 222 80 42 116 208 247 247 266 114 15 150 337 474 505 525 548 518 566 502 379 348 343 139 24 42 29 10 8 0 0 5 12 7 3 0 0 0 0 0 0 0 0 0 0 0 0 0 0 0 0 0 0 0 0 0 0
9 12 5 7 18 11 1 0 0 0 1 0 2 5 2 1 6 8 23 31 29 12 34 164 211 184 224 233 300 268 237 242 354 428 445 398 341 272 220 247 294 341 386 388 384 444 452 300 161 134 15 16 9 22 14 16 0 0 2 1 6 13 4 0 0 0 0 0 0 0 0 0 0 0 0 0 0 0 0 0 0 0 0 0 0
11 8 14 17 7 2 3 0 0 0 0 1 1 0 0 0 0 0 2 8 17 22 24 32 21 58 100 22 29 107 205 332 425 385 418 440 454 439 362 273 192 210 227 239 283 316 295 312 232 134 109 12 24 18 6 4 2 0 0 0 0 5 16 9 2 0 0 0 0 0 0 0 0 0 0 0 0 0 0 0 0 0 0 0 1
7 2 5 3 0 1 0 3 0 0 1 1 1 0 0 0 0 0 0 0 3 6 9 15 27 44 60 21 14 101 204 276 175 142 92 147 197 183 220 259 242 172 134 169 195 256 211 88 61 65 82 19 5 10 2 0 0 2 2 0 7 17 20 12 3 0 0 0 0 0 0 0 0 0 0 0 0 0 0 0 0 0 0 0 0
5 6 8 6 2 1 3 3 6 6 3 2 2 1 2 2 1 0 0 0 1 0 0 4 8 23 51 65 42 44 13 2 66 146 165 173 193 218 202 222 303 284 258 205 212 186 106 1 3 10 2 1 0 0 0 0 2 2 4 7 9 3 3 0 0 0 0 2 0 0 0 0 0 0 0 0 0 0 0 0 0 0 0 0 0
3 7 5 4 3 5 3 3 2 0 1 6 4 1 1 1 2 0 0 1 0 0 0 0 0 2 6 23 27 60 83 62 28 0 1 59 176 187 179 144 183 144 90 63 10 0 0 2 3 5 0 0 0 0 0 0 0 2 1 0 1 0 3 2 0 0 1 0 0 1 0 0 0 0 0 2 2 0 0 0 0 0 0 0 0
12 9 16 8 9 6 3 1 0 0 0 1 1 1 2 6 6 4 2 0 0 0 0 0 0 0 0 4 9 18 3 11 40 81 74 78 65 37 31 68 36 1 2 2 2 0 1 3 7 1 0 0 0 1 3 3 0 0 0 0 1 0 0 0 0 1 2 2 1 0 0 1 3 4 6 8 6 2 0 0 0 0 0 0 0
Wind_Speed
40 41 44 43 40 39 39 38 36 39 40 42 43 39 35 33 35 36 36 33 32 31 30 30 30 30 30 27 26 27 27 26 27 29 29 29 29 30 30 30 31 30 31 31 30 30 31 31 30 30 31 30 30 31 31 30 nan nan nan nan nan nan nan nan nan nan nan nan nan nan nan nan nan nan nan nan nan nan nan nan nan nan nan nan nan
47 44 44 46 42 39 39 40 37 36 36 38 38 38 37 34 32 34 32 31 32 31 30 31 31 32 30 27 26 27 27 27 28 29 29 29 29 29 31 31 31 31 32 32 32 30 30 31 30 31 31 32 31 nan nan nan nan nan nan nan nan nan nan nan nan nan nan nan nan nan nan nan nan nan nan nan nan nan nan nan nan nan nan nan nan
56 52 47 46 46 44 41 41 39 35 34 34 34 35 35 34 32 30 30 32 33 32 32 32 32 32 31 29 27 26 27 28 28 30 30 30 30 30 31 32 32 32 32 33 33 31 30 30 30 31 30 nan nan nan nan nan nan nan nan nan nan nan nan nan nan nan nan nan nan nan nan nan nan nan nan nan nan nan nan nan nan nan nan nan nan
56 54 52 47 48 47 43 42 41 38 34 33 32 32 33 33 32 30 30 33 33 33 33 33 34 33 32 30 29 28 27 28 29 30 30 30 30 31 31 33 32 32 33 33 32 31 30 30 30 31 31 31 nan nan nan nan nan nan nan nan nan nan nan nan nan nan nan nan nan nan nan nan nan nan nan nan nan nan nan nan nan nan nan nan nan
54 53 52 49 48 47 45 44 42 39 36 35 31 30 31 33 33 31 32 32 33 34 34 34 34 34 32 31 31 30 28 28 30 30 30 30 31 31 32 33 33 33 32 32 31 30 29 30 31 32 32 33 nan nan nan nan nan nan nan nan nan nan nan nan nan nan nan nan nan nan nan nan nan nan nan nan nan nan nan nan nan nan nan nan nan
49 49 51 51 50 48 46 45 41 39 37 35 31 30 32 34 35 34 32 31 32 34 34 33 32 32 32 32 32 32 31 30 30 31 31 31 31 31 32 33 34 33 32 31 30 29 28 29 31 33 33 nan nan nan nan nan nan nan nan nan nan nan nan nan nan nan nan nan nan nan nan nan nan nan nan nan nan nan nan nan nan nan nan nan nan
49 50 49 49 49 48 47 45 44 42 39 36 35 34 33 35 36 36 34 31 32 33 34 33 31 31 32 32 32 32 32 31 31 32 32 31 31 32 32 33 34 33 31 31 30 28 27 28 29 31 32 34 nan nan nan nan nan nan nan nan nan nan nan nan nan nan nan nan nan nan nan nan nan nan nan nan nan nan nan nan nan nan nan nan nan
46 50 51 50 49 47 47 46 46 43 40 39 38 37 37 38 38 38 37 33 33 33 33 31 30 31 32 32 32 34 34 32 31 32 32 32 32 32 33 33 34 33 31 31 30 28 28 28 29 30 32 33 nan nan nan nan nan nan nan nan nan nan nan nan nan nan nan nan nan nan nan nan nan nan nan nan nan nan nan nan nan nan nan nan nan
40 43 47 49 49 49 49 49 49 46 43 42 41 40 40 40 39 38 38 36 35 34 33 32 32 32 31 31 31 33 34 33 33 33 33 33 32 33 34 34 34 35 33 31 31 30 28 28 28 30 31 34 nan nan nan nan nan nan nan nan nan nan nan nan nan nan nan nan nan nan nan nan nan nan nan nan nan nan nan nan nan nan nan nan nan
48 45 44 43 44 47 48 50 49 48 45 43 42 40 40 40 40 37 35 35 35 35 34 35 34 32 30 30 32 33 33 33 33 36 36 33 33 34 34 33 34 35 34 32 31 31 30 28 28 32 34 36 nan nan nan nan nan nan nan nan nan nan nan nan nan nan nan nan nan nan nan nan nan nan nan nan nan nan nan nan nan nan nan nan nan
56 53 49 45 43 43 45 46 46 44 43 43 44 41 39 42 43 40 35 34 34 35 36 36 36 32 30 31 32 32 33 33 36 41 38 37 36 35 35 33 33 34 34 34 32 32 30 29 28 31 33 35 36 nan nan nan nan nan nan nan nan nan nan nan nan nan nan nan nan nan nan nan nan nan nan nan nan nan nan nan nan nan nan nan nan
nan 57 54 53 51 48 46 45 44 42 42 43 45 44 43 43 45 44 39 34 35 37 36 37 37 35 33 32 32 33 33 32 40 44 41 38 38 37 36 35 33 33 34 34 33 32 32 31 28 28 30 33 33 nan nan nan nan nan nan nan nan nan nan nan nan nan nan nan nan nan nan nan nan nan nan nan nan nan nan nan nan nan nan nan nan
57 nan 56 54 53 52 51 50 49 47 46 46 47 48 47 45 47 48 42 38 38 38 37 37 37 37 37 35 33 32 33 35 42 45 42 40 40 40 36 37 35 33 34 35 33 33 33 33 30 28 30 37 35 35 nan nan nan nan nan nan nan nan nan nan nan nan nan nan nan nan nan nan nan nan nan nan nan nan nan nan nan nan nan nan nan
58 59 60 57 52 50 50 51 50 49 49 49 50 50 50 48 49 50 46 42 40 39 38 37 37 38 39 38 35 33 33 38 44 45 43 42 42 42 37 39 37 35 35 36 34 32 33 34 33 30 31 34 34 37 37 nan nan nan nan nan nan nan nan nan nan nan nan nan nan nan nan nan nan nan nan nan nan nan nan nan nan nan nan nan nan
57 57 58 59 57 52 50 49 49 49 49 51 51 50 49 49 48 49 47 44 42 41 39 38 37 38 39 39 38 37 35 39 44 45 43 43 43 43 39 39 38 36 35 36 35 32 32 34 34 34 33 34 35 38 39 38 38 nan nan nan nan nan nan nan nan nan nan nan nan nan nan nan nan nan nan nan nan nan nan nan nan nan nan nan nan
49 50 52 57 58 57 56 57 54 50 50 52 52 51 50 50 49 50 49 46 44 43 41 40 38 38 38 39 41 39 36 42 45 44 44 43 45 41 40 40 40 37 36 37 35 32 31 33 35 36 35 34 38 45 43 39 38 nan nan nan nan nan nan nan nan nan nan nan nan nan nan nan nan nan nan nan nan nan nan nan nan nan nan nan nan
42 43 45 49 54 54 52 49 50 54 55 54 54 53 53 53 53 54 51 49 47 44 42 42 41 39 38 40 41 40 38 43 44 44 45 46 45 41 41 41 41 38 36 37 36 33 31 32 35 37 36 34 39 45 46 44 38 nan nan nan nan nan nan nan nan nan nan nan nan nan nan nan nan nan nan nan nan nan nan nan nan nan nan nan nan
37 40 43 45 49 53 51 46 49 51 54 55 55 55 56 57 56 56 52 50 48 44 43 43 42 41 40 39 40 41 40 43 44 45 46 47 45 43 43 43 42 39 36 37 36 32 31 36 36 38 37 34 41 45 46 44 39 nan nan nan nan 39 37 nan nan nan nan nan nan nan nan nan nan nan nan nan nan nan nan nan nan nan nan nan nan
35 40 44 45 45 48 53 53 47 43 49 52 54 55 54 57 58 57 54 51 48 47 45 44 44 42 40 39 39 40 42 46 44 45 46 46 45 44 45 44 43 39 37 36 36 33 30 32 38 38 37 38 43 43 45 43 39 nan nan nan 40 40 40 42 44 43 nan nan nan nan nan nan nan nan nan nan nan nan nan nan nan nan nan nan nan
33 38 42 44 44 44 49 54 54 49 44 44 48 49 50 53 56 56 54 51 50 50 48 47 45 45 44 41 42 43 45 49 44 43 46 47 47 47 47 46 43 40 37 37 36 32 30 30 34 40 41 43 43 44 44 43 40 nan nan nan 40 41 41 43 43 nan nan nan nan nan nan nan nan nan nan nan nan nan nan nan nan nan nan nan nan
31 34 38 39 38 41 49 54 57 58 51 48 49 53 56 55 54 55 54 53 55 54 52 50 49 47 47 44 43 45 48 49 45 42 46 48 48 50 47 45 44 42 37 37 35 33 30 31 33 39 43 44 44 44 44 44 42 40 40 40 40 42 46 45 45 nan nan nan nan nan nan nan nan nan nan nan nan nan nan nan nan nan nan nan nan
32 35 36 34 36 41 45 50 53 56 56 55 54 51 51 52 55 57 57 59 63 64 62 55 49 48 48 47 45 45 50 49 49 42 44 48 49 49 48 44 46 43 39 35 35 32 31 34 35 39 45 45 44 45 45 45 45 41 40 42 45 50 47 46 47 46 nan nan nan nan nan nan nan nan nan nan nan nan nan nan nan nan nan nan nan
36 36 36 37 41 44 47 50 50 51 49 53 58 56 59 58 56 59 59 61 59 56 52 54 52 49 49 49 47 47 53 51 49 46 43 46 47 47 48 48 49 43 38 35 33 32 32 34 37 43 44 45 45 45 46 46 44 41 45 48 50 51 49 47 47 nan nan nan nan nan nan nan nan nan nan nan nan nan nan nan nan nan nan nan nan
39 42 45 44 44 45 47 49 52 53 49 49 52 52 54 59 60 60 61 60 59 57 55 54 56 54 51 50 48 51 56 53 48 47 47 43 45 46 47 51 51 41 36 35 34 33 33 34 38 43 43 45 45 44 45 45 41 45 50 52 53 52 48 48 47 nan nan nan nan nan nan nan nan nan nan nan nan nan nan nan nan nan nan nan nan
44 41 39 38 38 39 43 47 52 55 56 56 53 52 54 56 58 59 57 55 55 56 55 54 54 57 57 53 50 53 55 52 50 46 47 46 43 45 47 51 48 45 39 35 34 32 34 40 44 43 42 44 46 45 42 44 47 50 52 54 53 49 50 49 48 nan nan nan nan nan nan nan nan nan nan nan nan nan nan nan nan nan nan nan nan
36 33 33 36 39 41 43 46 48 53 59 59 56 52 52 55 57 58 59 57 57 55 54 56 57 58 59 60 52 49 51 51 50 50 47 46 45 44 46 49 47 43 41 39 37 38 39 42 45 43 43 45 46 41 39 40 47 53 54 54 50 51 51 51 nan nan nan nan nan nan nan nan nan nan nan nan nan nan nan nan nan nan nan nan nan
35 34 33 36 42 44 44 45 46 48 54 61 57 52 55 57 56 56 56 56 57 59 57 56 58 58 59 59 55 49 49 49 51 50 50 49 46 45 46 46 45 46 43 40 39 38 41 43 42 43 42 48 48 45 43 44 47 49 50 50 51 52 52 nan nan nan nan nan nan nan nan nan nan nan nan nan nan nan nan nan nan nan nan nan nan
35 35 37 42 46 46 44 42 44 47 52 54 51 47 49 54 57 56 55 54 56 57 56 55 57 56 53 53 52 50 47 47 47 47 46 47 47 48 47 48 46 42 43 42 41 43 46 46 46 44 46 47 47 45 42 42 46 50 50 49 51 nan nan nan nan nan nan nan nan nan nan nan nan nan nan nan nan nan nan nan nan nan nan nan nan
32 33 37 42 43 43 43 44 45 46 47 49 47 46 47 47 50 52 50 50 51 52 53 51 52 53 50 50 50 46 44 41 38 40 44 46 48 49 48 46 45 45 47 49 48 49 51 48 44 43 45 48 48 47 45 45 45 48 49 nan nan nan nan nan nan nan nan nan nan nan nan nan nan nan nan nan nan nan nan nan nan nan nan nan nan
35 34 37 39 40 42 43 42 43 44 43 41 44 48 47 45 47 48 48 46 46 46 47 46 46 49 47 49 50 45 38 40 52 51 49 49 49 51 51 51 47 51 52 52 51 51 49 45 42 43 46 48 48 47 47 48 48 47 nan nan nan nan nan nan nan nan nan nan nan nan nan nan nan nan nan nan nan nan nan nan nan nan nan nan nan
40 37 36 36 37 39 39 39 40 41 41 43 43 44 49 50 46 40 39 43 45 42 39 37 36 40 50 54 53 50 56 53 50 51 52 50 49 50 49 48 51 54 54 52 51 51 48 44 42 43 44 47 48 48 49 50 47 nan nan nan nan nan nan nan nan nan nan nan nan nan nan nan nan nan nan nan nan nan nan nan nan nan nan nan nan
42 40 37 35 34 36 37 37 37 37 38 41 43 45 47 48 49 51 49 44 43 43 42 40 36 37 40 46 55 56 50 47 47 48 48 47 46 46 45 47 51 54 50 54 52 48 45 43 42 42 44 46 48 49 48 48 47 45 nan nan nan nan nan nan nan nan nan nan nan nan nan nan nan nan nan nan nan nan nan nan nan nan nan nan nan
39 39 39 38 36 34 33 34 34 34 34 35 37 40 43 45 46 47 52 54 46 41 43 43 42 43 42 43 49 48 44 42 42 45 45 44 45 45 45 48 51 51 53 51 47 45 42 41 41 42 44 46 49 49 48 49 47 44 nan nan nan nan nan nan nan nan nan nan nan nan nan nan nan nan nan nan nan nan nan nan nan nan nan nan nan
42 44 42 40 36 35 34 32 30 30 30 31 32 36 39 42 44 47 49 51 52 45 36 31 33 38 39 44 47 46 44 42 42 41 41 42 44 48 50 50 52 52 50 45 46 43 40 39 40 42 43 45 48 49 48 47 47 45 nan nan nan nan nan nan nan nan nan nan nan nan nan nan nan nan nan nan nan nan nan nan nan nan nan nan nan
38 41 45 43 38 36 33 30 29 28 28 29 nan nan 37 39 43 47 47 48 47 43 40 35 31 30 39 43 41 39 36 37 39 39 39 43 51 55 60 60 56 47 43 41 40 40 40 39 41 42 44 46 47 47 46 47 47 45 nan nan nan nan nan nan nan nan nan nan nan nan nan nan nan nan nan nan nan nan nan nan nan nan nan nan nan
32 33 37 40 38 37 33 30 28 29 29 30 34 35 36 37 40 42 44 43 44 44 45 46 44 45 40 35 41 36 33 33 36 38 45 54 57 60 55 51 48 42 37 37 38 38 39 41 42 43 44 44 44 43 44 47 47 nan nan nan nan nan nan nan nan nan nan nan nan nan nan nan nan nan nan nan nan nan nan nan nan nan nan nan nan
27 28 32 35 35 33 31 28 28 30 30 31 33 35 35 38 38 39 41 44 43 42 44 47 48 50 53 47 40 37 36 36 39 47 54 55 55 52 49 46 41 39 36 37 39 41 41 41 43 45 44 44 44 44 45 45 43 42 nan nan nan nan nan nan nan nan nan nan nan nan nan nan nan nan nan nan nan nan nan nan nan nan nan nan nan
nan 24 nan nan 29 31 31 30 29 30 33 33 34 35 35 36 38 39 42 43 42 40 40 44 45 45 46 47 52 52 56 60 65 62 56 54 51 47 45 42 39 36 37 39 40 41 42 44 45 45 45 45 45 45 45 44 43 nan nan nan nan nan nan nan nan nan nan nan nan nan nan nan nan nan nan nan nan nan nan nan nan nan nan nan nan
nan nan 26 28 28 nan 29 29 30 30 32 31 33 36 36 36 37 40 41 41 nan nan nan nan 45 46 48 48 51 53 57 54 51 51 49 45 44 44 42 40 38 38 39 41 42 42 43 45 45 46 46 45 45 46 46 nan nan nan nan nan nan nan nan nan nan nan nan nan nan nan nan nan nan nan nan nan nan nan nan nan nan nan nan nan nan
nan nan nan nan 28 28 nan nan 30 32 32 31 32 36 38 38 38 39 40 40 40 nan nan nan 47 47 48 49 50 48 46 46 48 50 49 46 42 41 41 40 38 40 43 44 44 42 43 44 45 46 46 45 46 47 47 46 nan nan nan nan nan nan nan nan nan nan nan nan nan nan nan nan nan nan nan nan nan nan nan nan nan nan nan nan nan
nan nan nan nan nan nan nan nan nan nan 34 34 31 32 38 40 39 38 39 41 nan nan 45 nan nan nan 47 46 44 43 43 41 43 46 47 46 43 40 40 42 44 45 45 44 44 42 41 43 44 45 46 47 48 49 48 46 nan nan nan nan nan nan nan nan nan nan nan nan nan nan nan nan nan nan nan nan nan nan nan nan nan nan nan nan nan
nan nan nan nan nan nan nan nan nan nan nan nan nan nan 35 38 39 37 36 40 nan nan nan nan 41 44 nan 47 43 43 45 43 43 43 43 44 44 43 45 46 45 44 44 43 43 42 41 43 46 47 48 49 50 50 50 46 40 nan nan nan nan nan nan nan nan nan nan nan nan nan nan nan nan nan nan nan nan nan nan nan nan nan nan nan nan
nan nan nan nan nan nan nan nan nan nan nan nan nan nan nan nan 39 39 37 37 39 39 33 30 nan 38 nan nan nan 41 39 40 42 44 43 41 41 43 45 46 47 44 41 41 42 42 44 45 47 48 49 51 51 51 nan nan nan nan nan nan nan nan nan nan nan nan nan nan nan nan nan nan nan nan nan nan nan nan nan nan nan nan nan nan nan
nan nan nan nan nan nan nan nan nan nan nan nan nan nan 34 nan nan nan nan 38 38 37 32 27 28 34 40 44 nan nan nan nan nan 41 43 43 42 42 43 45 45 42 41 41 45 47 48 49 49 51 53 53 52 51 nan nan nan nan nan nan nan nan nan nan nan nan nan nan nan nan nan nan nan nan nan nan nan nan nan nan nan nan nan nan nan
nan nan nan nan nan nan nan nan nan nan nan nan nan nan nan nan nan nan nan nan nan 40 34 30 31 33 36 39 40 43 nan nan 39 39 41 41 42 41 nan 40 40 41 43 46 50 52 52 52 53 54 53 52 nan nan nan nan nan nan nan nan nan nan nan nan nan nan nan nan nan nan nan nan nan nan nan nan nan nan nan nan nan nan nan nan nan
nan nan nan nan nan nan nan nan nan nan nan nan nan nan nan nan nan nan nan nan nan nan nan 37 36 36 36 37 38 41 42 42 41 42 44 46 46 46 46 46 47 48 50 52 53 53 54 56 57 57 nan nan nan nan nan nan nan nan nan nan nan nan nan nan nan nan nan nan nan nan nan nan nan nan nan nan nan nan nan nan nan nan nan nan nan
nan nan nan nan nan nan nan nan nan nan nan nan nan nan nan nan nan nan nan nan nan nan nan nan nan nan nan nan nan 45 45 45 44 44 45 47 48 49 50 51 52 54 55 56 56 57 58 59 60 61 59 nan nan nan nan nan nan nan nan nan nan nan nan nan nan nan nan nan nan nan nan nan nan nan nan nan nan nan nan nan nan nan nan nan nan
nan nan nan nan nan nan nan nan nan nan nan nan nan nan nan nan nan nan nan nan nan nan nan nan nan nan nan nan nan 47 47 47 47 46 nan 47 48 50 53 55 56 57 59 60 60 61 60 nan nan nan nan nan nan nan nan nan nan nan nan nan nan nan nan nan nan nan nan nan nan nan nan nan nan nan nan nan nan nan nan nan nan nan nan nan nan
nan nan nan nan nan nan nan nan nan nan nan nan nan nan nan nan nan nan nan nan nan nan nan nan nan nan nan nan nan nan nan nan nan 46 46 47 48 50 53 55 56 57 57 56 55 54 52 nan nan nan nan nan nan nan nan nan nan nan nan nan nan nan nan nan nan nan nan nan nan nan nan nan nan nan nan nan nan nan nan nan nan nan nan nan nan
nan nan nan nan nan nan nan nan nan nan nan nan nan nan nan nan nan nan nan nan nan nan nan nan nan nan nan nan nan nan nan nan nan nan nan nan 46 48 49 50 50 50 nan nan nan nan nan nan nan nan nan nan nan nan nan nan nan nan nan nan nan nan nan nan nan nan nan nan nan nan nan nan nan nan nan nan nan nan nan nan nan nan nan nan nan
nan nan nan nan nan nan nan nan nan nan nan nan nan nan nan nan nan nan nan nan nan nan nan nan nan nan nan nan nan nan nan nan nan nan nan nan nan nan nan nan nan nan nan nan nan nan nan nan nan nan nan nan nan nan nan nan nan nan nan nan nan nan nan nan nan nan nan nan nan nan nan nan nan nan nan nan nan nan nan nan nan nan nan nan nan
Wind_Direction
256 254 251 250 250 248 248 251 251 249 251 252 253 252 249 248 248 251 260 268 271 274 278 281 284 286 284 280 279 284 292 298 298 303 310 316 323 329 329 327 324 320 318 320 321 321 323 325 325 324 320 320 321 321 320 318 nan nan nan nan nan nan nan nan nan nan nan nan nan nan nan nan nan nan nan nan nan nan nan nan nan nan nan nan nan
250 250 247 244 246 248 249 248 248 247 249 251 253 252 250 248 249 252 260 265 267 271 275 276 278 282 282 280 276 279 287 294 296 300 308 314 321 324 329 329 325 321 318 319 320 319 320 322 324 324 322 322 321 nan nan nan nan nan nan nan nan nan nan nan nan nan nan nan nan nan nan nan nan nan nan nan nan nan nan nan nan nan nan nan nan
241 242 243 241 241 243 245 244 244 244 246 247 251 251 249 247 248 254 257 258 261 266 270 272 273 277 280 280 277 276 283 290 293 298 306 313 319 324 327 328 326 323 322 320 319 317 317 320 323 322 321 nan nan nan nan nan nan nan nan nan nan nan nan nan nan nan nan nan nan nan nan nan nan nan nan nan nan nan nan nan nan nan nan nan nan
242 242 242 243 241 240 240 240 241 243 243 245 250 252 252 250 251 253 253 254 260 262 266 267 267 273 282 283 279 277 279 286 291 296 304 310 316 323 325 325 325 325 324 319 318 320 320 316 319 321 322 323 nan nan nan nan nan nan nan nan nan nan nan nan nan nan nan nan nan nan nan nan nan nan nan nan nan nan nan nan nan nan nan nan nan
236 238 242 246 246 242 241 242 243 245 247 248 251 253 255 256 254 255 253 255 260 264 266 266 267 273 281 283 280 278 278 283 289 294 299 305 311 317 322 323 323 324 323 319 318 320 321 320 317 317 317 319 nan nan nan nan nan nan nan nan nan nan nan nan nan nan nan nan nan nan nan nan nan nan nan nan nan nan nan nan nan nan nan nan nan
232 236 237 240 243 243 242 244 247 249 252 252 253 253 255 258 259 255 256 260 263 266 271 270 271 277 278 276 275 276 276 279 287 291 297 301 306 312 318 321 321 322 321 319 319 319 319 318 316 317 317 nan nan nan nan nan nan nan nan nan nan nan nan nan nan nan nan nan nan nan nan nan nan nan nan nan nan nan nan nan nan nan nan nan nan
232 235 239 241 241 243 244 245 246 249 252 253 252 252 252 254 258 258 258 261 266 268 271 273 271 273 273 271 272 274 276 277 282 287 293 300 306 309 314 319 320 320 320 318 317 317 315 314 315 317 320 318 nan nan nan nan nan nan nan nan nan nan nan nan nan nan nan nan nan nan nan nan nan nan nan nan nan nan nan nan nan nan nan nan nan
231 231 235 238 240 243 246 247 248 249 249 252 254 256 256 252 252 255 256 260 264 267 269 272 270 269 270 269 269 270 272 275 280 285 290 298 302 306 311 316 318 318 318 317 315 315 313 311 313 314 316 317 nan nan nan nan nan nan nan nan nan nan nan nan nan nan nan nan nan nan nan nan nan nan nan nan nan nan nan nan nan nan nan nan nan
235 233 230 233 237 242 243 242 243 245 247 249 253 259 261 255 250 251 254 258 260 265 267 270 270 269 268 267 268 269 272 276 279 284 289 296 299 302 308 314 316 315 315 316 313 311 309 309 310 311 313 316 nan nan nan nan nan nan nan nan nan nan nan nan nan nan nan nan nan nan nan nan nan nan nan nan nan nan nan nan nan nan nan nan nan
236 235 232 230 231 236 238 238 240 241 243 246 248 254 259 256 252 252 255 260 263 263 266 269 270 271 270 266 266 268 271 273 283 294 291 291 294 296 302 310 314 313 313 312 311 311 309 307 309 317 317 318 nan nan nan nan nan nan nan nan nan nan nan nan nan nan nan nan nan nan nan nan nan nan nan nan nan nan nan nan nan nan nan nan nan
235 235 235 232 232 233 233 234 237 239 242 244 244 248 252 252 252 254 258 263 264 262 264 268 269 270 270 267 268 269 271 274 289 288 294 298 294 294 300 305 308 310 311 311 311 309 305 306 306 313 314 314 314 nan nan nan nan nan nan nan nan nan nan nan nan nan nan nan nan nan nan nan nan nan nan nan nan nan nan nan nan nan nan nan nan
nan 235 233 233 236 238 236 235 235 238 241 245 247 247 247 249 250 251 259 268 265 260 263 265 267 269 266 267 269 270 273 280 284 286 291 297 297 293 297 301 304 307 308 310 308 306 305 305 306 307 307 308 307 nan nan nan nan nan nan nan nan nan nan nan nan nan nan nan nan nan nan nan nan nan nan nan nan nan nan nan nan nan nan nan nan
220 nan 230 231 232 235 237 238 238 239 240 242 245 247 247 248 247 248 259 270 266 262 263 262 263 267 268 269 270 273 272 280 281 286 291 295 298 296 295 300 302 305 305 307 307 306 303 303 305 305 304 309 304 302 nan nan nan nan nan nan nan nan nan nan nan nan nan nan nan nan nan nan nan nan nan nan nan nan nan nan nan nan nan nan nan
217 221 223 225 227 230 234 237 238 239 240 241 243 245 246 246 245 246 256 266 265 262 262 262 259 262 265 270 272 272 274 275 281 286 291 295 295 296 293 298 300 304 305 303 304 306 305 304 304 303 300 301 300 301 301 nan nan nan nan nan nan nan nan nan nan nan nan nan nan nan nan nan nan nan nan nan nan nan nan nan nan nan nan nan nan
215 218 223 224 223 223 229 237 237 236 238 240 242 245 246 244 245 248 254 261 262 262 262 262 261 261 263 267 269 270 271 279 280 284 290 293 293 293 289 293 297 301 302 300 302 306 305 303 304 303 302 301 301 303 302 304 306 nan nan nan nan nan nan nan nan nan nan nan nan nan nan nan nan nan nan nan nan nan nan nan nan nan nan nan nan
215 216 220 226 224 226 224 222 227 234 237 238 239 242 245 247 248 251 254 255 256 257 257 258 262 263 263 264 264 266 268 278 279 282 288 289 290 285 287 292 295 298 301 297 297 300 301 300 301 301 301 302 305 307 304 304 306 nan nan nan nan nan nan nan nan nan nan nan nan nan nan nan nan nan nan nan nan nan nan nan nan nan nan nan nan
214 216 217 223 230 228 228 228 228 224 227 234 238 240 243 246 248 250 252 254 255 256 257 257 260 265 266 264 265 265 266 273 281 282 285 288 283 282 286 288 292 296 298 295 295 298 298 299 300 299 301 303 306 307 307 307 305 nan nan nan nan nan nan nan nan nan nan nan nan nan nan nan nan nan nan nan nan nan nan nan nan nan nan nan nan
210 215 214 215 225 231 231 231 224 226 229 231 233 236 240 243 247 249 251 253 254 256 256 256 259 263 265 266 268 266 266 271 280 280 284 286 286 283 282 285 289 293 293 292 292 295 300 307 304 300 303 304 308 308 309 307 306 nan nan nan nan 307 305 nan nan nan nan nan nan nan nan nan nan nan nan nan nan nan nan nan nan nan nan nan nan
215 216 214 212 215 226 231 232 238 230 230 231 231 232 234 240 242 245 247 250 253 254 254 254 256 258 261 264 270 268 263 263 272 276 281 285 285 279 281 283 287 291 291 291 291 293 297 302 308 303 304 304 309 309 310 309 306 nan nan nan 309 310 310 307 304 303 nan nan nan nan nan nan nan nan nan nan nan nan nan nan nan nan nan nan nan
214 214 215 212 212 216 226 232 234 235 234 236 235 237 237 239 241 243 245 247 250 250 250 251 253 252 254 258 261 263 260 258 266 275 278 282 289 280 278 282 288 290 289 290 290 291 294 293 300 303 305 305 308 310 312 311 308 nan nan nan 309 312 307 306 305 nan nan nan nan nan nan nan nan nan nan nan nan nan nan nan nan nan nan nan nan
217 216 215 214 216 221 229 233 232 231 231 235 237 235 232 231 236 242 243 244 247 246 247 247 248 249 251 254 257 259 257 258 264 274 275 281 287 283 278 285 286 286 288 289 290 293 293 291 288 298 302 305 309 311 312 313 311 309 311 309 310 305 301 301 304 nan nan nan nan nan nan nan nan nan nan nan nan nan nan nan nan nan nan nan nan
222 218 216 217 223 226 229 234 235 232 231 229 227 235 240 241 237 234 237 241 243 241 236 237 243 248 249 252 254 256 256 262 260 269 275 280 285 288 280 283 284 284 287 288 290 294 295 289 288 297 304 307 308 310 312 313 314 307 309 308 300 299 302 299 301 303 nan nan nan nan nan nan nan nan nan nan nan nan nan nan nan nan nan nan nan
222 217 217 221 222 225 227 232 237 237 229 232 234 228 230 235 237 239 239 241 247 253 254 250 247 245 248 250 250 252 252 254 263 265 271 277 284 287 287 281 284 285 287 289 292 291 288 289 290 302 306 306 308 311 312 314 311 307 306 301 300 302 298 295 298 nan nan nan nan nan nan nan nan nan nan nan nan nan nan nan nan nan nan nan nan
219 223 225 222 220 219 222 227 234 235 236 234 235 238 237 238 238 236 234 235 241 248 248 247 247 246 246 246 247 248 248 250 255 266 269 276 280 285 282 282 285 284 283 283 286 287 289 290 291 303 305 307 309 310 310 310 308 306 303 302 300 297 293 294 297 nan nan nan nan nan nan nan nan nan nan nan nan nan nan nan nan nan nan nan nan
229 229 228 230 229 226 226 227 233 237 236 237 237 234 233 236 237 239 244 244 241 239 243 245 245 247 246 242 239 243 244 246 249 256 269 275 278 280 278 280 285 287 282 278 282 285 289 294 298 305 306 306 305 305 306 312 311 308 306 302 298 290 291 293 297 nan nan nan nan nan nan nan nan nan nan nan nan nan nan nan nan nan nan nan nan
231 229 232 235 237 234 230 228 232 239 240 238 240 242 241 240 239 237 237 237 238 241 241 243 244 246 246 242 239 239 242 243 246 250 255 266 270 276 276 277 281 285 285 278 284 286 288 293 300 301 296 294 294 296 302 307 311 311 307 301 291 290 290 293 nan nan nan nan nan nan nan nan nan nan nan nan nan nan nan nan nan nan nan nan nan
230 231 233 237 241 239 233 230 230 234 242 242 237 238 241 242 243 242 241 242 241 239 239 240 242 245 246 239 234 236 240 239 243 246 250 255 259 265 268 265 273 276 275 273 278 278 283 285 284 289 291 300 301 301 300 298 301 305 302 296 290 291 293 nan nan nan nan nan nan nan nan nan nan nan nan nan nan nan nan nan nan nan nan nan nan
224 227 230 236 239 240 238 233 231 232 239 246 242 241 243 245 245 243 242 245 246 245 247 245 240 241 244 238 232 233 238 238 242 247 251 256 259 262 265 263 265 270 270 267 268 269 270 269 272 272 276 283 286 289 293 298 301 302 299 294 292 nan nan nan nan nan nan nan nan nan nan nan nan nan nan nan nan nan nan nan nan nan nan nan nan
223 226 233 238 240 242 243 242 238 235 238 244 245 244 249 249 248 242 242 247 250 252 255 255 247 242 241 238 234 234 236 239 243 250 256 261 263 262 263 265 264 263 264 267 262 260 263 268 273 277 282 287 290 294 296 300 303 303 299 nan nan nan nan nan nan nan nan nan nan nan nan nan nan nan nan nan nan nan nan nan nan nan nan nan nan
231 234 240 244 245 245 244 244 245 243 243 242 238 238 244 255 254 247 245 253 258 260 265 261 251 245 244 241 238 236 233 234 240 249 251 259 262 264 266 265 262 259 264 270 268 265 268 273 278 281 284 287 291 295 298 302 304 303 nan nan nan nan nan nan nan nan nan nan nan nan nan nan nan nan nan nan nan nan nan nan nan nan nan nan nan
231 236 242 244 248 249 249 249 250 250 248 246 242 241 242 242 250 258 259 263 265 263 266 265 253 242 237 233 231 239 240 243 251 251 252 255 258 261 264 267 265 265 267 262 263 266 269 274 277 280 285 289 292 295 296 299 305 nan nan nan nan nan nan nan nan nan nan nan nan nan nan nan nan nan nan nan nan nan nan nan nan nan nan nan nan
234 236 238 242 247 252 255 257 256 255 252 248 246 244 242 242 241 238 236 242 255 267 274 274 266 260 257 242 234 234 242 247 252 257 259 259 259 261 264 262 262 268 271 269 261 264 271 276 279 283 286 288 291 294 298 301 304 307 nan nan nan nan nan nan nan nan nan nan nan nan nan nan nan nan nan nan nan nan nan nan nan nan nan nan nan
242 242 241 241 242 245 252 261 264 261 256 251 247 247 247 247 245 242 241 239 242 249 266 271 268 262 262 257 257 252 247 248 254 258 260 262 263 262 263 264 265 267 265 260 262 267 271 277 282 284 287 290 292 296 299 301 304 302 nan nan nan nan nan nan nan nan nan nan nan nan nan nan nan nan nan nan nan nan nan nan nan nan nan nan nan
244 245 241 238 241 247 253 259 261 260 258 257 254 252 249 248 249 248 247 240 237 240 245 254 259 264 265 262 254 251 250 251 254 258 261 263 264 262 260 256 263 268 268 262 262 268 273 276 279 282 285 288 292 295 298 301 301 300 nan nan nan nan nan nan nan nan nan nan nan nan nan nan nan nan nan nan nan nan nan nan nan nan nan nan nan
242 240 234 234 239 245 251 251 247 245 244 249 nan nan 245 241 244 250 253 251 250 255 260 260 257 264 264 257 251 251 250 253 257 261 263 259 257 256 251 247 247 248 254 260 267 271 275 277 278 280 283 287 291 295 298 296 296 297 nan nan nan nan nan nan nan nan nan nan nan nan nan nan nan nan nan nan nan nan nan nan nan nan nan nan nan
237 236 238 239 245 250 250 244 241 239 235 238 245 249 248 243 242 245 248 252 255 256 255 256 259 252 244 252 264 255 253 257 261 261 258 257 257 258 250 251 256 259 262 260 262 265 268 271 274 278 281 284 288 293 297 298 296 nan nan nan nan nan nan nan nan nan nan nan nan nan nan nan nan nan nan nan nan nan nan nan nan nan nan nan nan
238 236 238 244 248 250 245 238 231 230 232 234 241 250 254 251 246 244 246 247 248 251 254 258 256 246 240 230 231 244 245 246 253 258 257 257 260 254 251 256 258 256 256 259 261 262 267 269 271 274 279 284 287 289 292 296 295 292 nan nan nan nan nan nan nan nan nan nan nan nan nan nan nan nan nan nan nan nan nan nan nan nan nan nan nan
nan 243 nan nan 245 245 241 235 228 227 230 228 236 242 253 258 250 245 246 246 247 249 256 254 247 243 239 229 223 223 223 227 232 234 242 249 247 244 247 252 254 255 257 257 261 264 267 268 271 276 280 282 287 290 292 291 292 nan nan nan nan nan nan nan nan nan nan nan nan nan nan nan nan nan nan nan nan nan nan nan nan nan nan nan nan
nan nan 244 235 243 nan 243 238 236 234 240 243 244 245 246 248 248 245 242 243 nan nan nan nan 248 237 232 230 229 227 228 229 234 240 243 243 244 244 245 246 246 248 251 256 259 262 265 268 272 275 278 282 287 292 297 nan nan nan nan nan nan nan nan nan nan nan nan nan nan nan nan nan nan nan nan nan nan nan nan nan nan nan nan nan nan
nan nan nan nan 246 245 nan nan 237 235 233 241 253 253 246 244 244 241 240 241 241 nan nan nan 249 242 235 233 234 231 231 232 234 237 239 241 240 240 241 243 244 248 251 252 254 259 263 267 272 275 280 284 289 293 295 295 nan nan nan nan nan nan nan nan nan nan nan nan nan nan nan nan nan nan nan nan nan nan nan nan nan nan nan nan nan
nan nan nan nan nan nan nan nan nan nan 236 239 247 249 244 239 241 242 240 240 nan nan 249 nan nan nan 243 239 239 237 233 233 235 234 232 233 233 234 237 240 243 246 248 251 255 260 266 269 272 275 278 282 288 292 294 295 nan nan nan nan nan nan nan nan nan nan nan nan nan nan nan nan nan nan nan nan nan nan nan nan nan nan nan nan nan
nan nan nan nan nan nan nan nan nan nan nan nan nan nan 239 234 233 237 241 244 nan nan nan nan 251 246 nan 245 241 232 231 232 234 234 234 235 234 229 230 235 241 247 251 253 258 264 269 271 272 275 279 284 287 290 293 295 294 nan nan nan nan nan nan nan nan nan nan nan nan nan nan nan nan nan nan nan nan nan nan nan nan nan nan nan nan
nan nan nan nan nan nan nan nan nan nan nan nan nan nan nan nan 230 230 236 236 233 231 235 242 nan 241 nan nan nan 232 232 236 236 238 239 239 237 234 234 236 239 244 250 254 258 264 268 270 273 277 281 285 288 290 nan nan nan nan nan nan nan nan nan nan nan nan nan nan nan nan nan nan nan nan nan nan nan nan nan nan nan nan nan nan nan
nan nan nan nan nan nan nan nan nan nan nan nan nan nan 240 nan nan nan nan 230 224 221 225 240 246 243 238 232 nan nan nan nan nan 235 238 240 240 241 241 239 240 244 250 256 259 262 265 267 271 274 276 278 283 288 nan nan nan nan nan nan nan nan nan nan nan nan nan nan nan nan nan nan nan nan nan nan nan nan nan nan nan nan nan nan nan
nan nan nan nan nan nan nan nan nan nan nan nan nan nan nan nan nan nan nan nan nan 222 229 241 248 244 238 234 231 229 nan nan 235 234 236 240 242 243 nan 244 245 250 255 259 261 263 266 269 271 272 277 279 nan nan nan nan nan nan nan nan nan nan nan nan nan nan nan nan nan nan nan nan nan nan nan nan nan nan nan nan nan nan nan nan nan
nan nan nan nan nan nan nan nan nan nan nan nan nan nan nan nan nan nan nan nan nan nan nan 247 252 251 245 240 235 233 235 237 237 237 239 242 244 245 247 250 253 255 258 260 264 267 268 270 273 275 nan nan nan nan nan nan nan nan nan nan nan nan nan nan nan nan nan nan nan nan nan nan nan nan nan nan nan nan nan nan nan nan nan nan nan
nan nan nan nan nan nan nan nan nan nan nan nan nan nan nan nan nan nan nan nan nan nan nan nan nan nan nan nan nan 243 244 245 245 246 248 250 251 252 254 255 255 256 257 260 261 263 265 269 271 273 274 nan nan nan nan nan nan nan nan nan nan nan nan nan nan nan nan nan nan nan nan nan nan nan nan nan nan nan nan nan nan nan nan nan nan
nan nan nan nan nan nan nan nan nan nan nan nan nan nan nan nan nan nan nan nan nan nan nan nan nan nan nan nan nan 247 248 250 252 254 nan 256 256 257 259 259 260 260 261 263 264 265 267 nan nan nan nan nan nan nan nan nan nan nan nan nan nan nan nan nan nan nan nan nan nan nan nan nan nan nan nan nan nan nan nan nan nan nan nan nan nan
nan nan nan nan nan nan nan nan nan nan nan nan nan nan nan nan nan nan nan nan nan nan nan nan nan nan nan nan nan nan nan nan nan 255 256 258 259 260 262 264 265 268 268 267 267 267 266 nan nan nan nan nan nan nan nan nan nan nan nan nan nan nan nan nan nan nan nan nan nan nan nan nan nan nan nan nan nan nan nan nan nan nan nan nan nan
nan nan nan nan nan nan nan nan nan nan nan nan nan nan nan nan nan nan nan nan nan nan nan nan nan nan nan nan nan nan nan nan nan nan nan nan 253 254 257 259 261 262 nan nan nan nan nan nan nan nan nan nan nan nan nan nan nan nan nan nan nan nan nan nan nan nan nan nan nan nan nan nan nan nan nan nan nan nan nan nan nan nan nan nan nan
nan nan nan nan nan nan nan nan nan nan nan nan nan nan nan nan nan nan nan nan nan nan nan nan nan nan nan nan nan nan nan nan nan nan nan nan nan nan nan nan nan nan nan nan nan nan nan nan nan nan nan nan nan nan nan nan nan nan nan nan nan nan nan nan nan nan nan nan nan nan nan nan nan nan nan nan nan nan nan nan nan nan nan nan nan